Retour au catalogue

BREEZE-M R/B

ActifMEO
NORAD 40346·ROCKET BODY·🇷🇺 Russia

Lancé Dec 15, 2014 depuis Baikonur Cosmodrome

Loading…

Prochains Passages (prochaines 24 heures)

TLE

FraisSource: Space-Track

Époque: Sep 14, 2026, 05:51 UTC

1 40346U 14082B   26257.24410279 -.00000135  00000-0  00000-0 0  9993
2 40346   8.8325  50.3449 0662521 191.9576 166.5144  1.11335363 47554

Suivez BREEZE-M R/B en temps réel avec AllMySat

Download on the App Store